DW9987 Weather Reports


time (UTC)temp
F
wind
direction
speed
knots
gust
knots
rain 1hr
in
rain 24hr
in
rain mn
in
humidity
%
barometer
mb
20260504044535 60 223 0.9 4.3 0.00 0.06 0.06 63 1006.2
20260504043025 60 259 2.6 7.0 0.00 0.06 0.06 63 1006.2
20260504041524 60 229 0.9 6.1 0.00 0.06 0.06 64 1006.1
20260504040024 60 201 2.6 6.1 0.00 0.06 0.06 63 1006.0
20260504034524 60 167 4.3 7.8 0.00 0.06 0.06 62 1006.1
20260504033023 60 186 2.6 6.1 0.00 0.06 0.06 62 1006.4
20260504031528 60 200 2.6 7.8 0.00 0.06 0.06 60 1006.4
20260504030023 61 194 1.7 6.1 0.00 0.06 0.06 58 1006.6
20260504024521 61 209 1.7 6.1 0.00 0.06 0.06 57 1006.5
20260504023022 62 190 1.7 5.2 0.00 0.06 0.06 55 1006.5
20260504021520 62 212 1.7 4.3 0.00 0.06 0.06 55 1006.4
20260504020019 63 202 1.7 5.2 0.00 0.06 0.06 54 1006.3
20260504014522 63 218 1.7 5.2 0.00 0.06 0.06 54 1006.2
20260504013025 63 194 1.7 4.3 0.00 0.06 0.06 54 1006.1
20260504011518 64 194 1.7 4.3 0.00 0.06 0.06 53 1006.1
20260504010017 64 202 1.7 4.3 0.00 0.06 0.06 52 1006.1
20260504004518 65 196 1.7 5.2 0.00 0.06 0.06 50 1006.1
20260504003017 66 194 1.7 6.1 0.00 0.06 0.06 49 1006.0
20260504001518 67 240 2.6 7.8 0.00 0.06 0.06 48 1006.1
20260504000015 67 350 3.5 10.4 0.00 0.06 0.06 47 1006.0
20260503234514 68 198 2.6 7.8 0.00 0.06 0.06 47 1006.1
20260503233014 68 194 2.6 10.4 0.00 0.06 0.06 46 1006.2
20260503231519 68 221 4.3 11.3 0.00 0.06 0.06 45 1006.2
20260503230011 68 212 5.2 13.9 0.00 0.06 0.06 44 1006.3
20260503224509 69 217 2.6 12.2 0.00 0.06 0.06 44 1006.4
20260503223008 69 234 5.2 13.0 0.00 0.06 0.06 43 1006.6
20260503221507 69 225 1.7 10.4 0.00 0.06 0.06 44 1006.6
20260503220006 69 208 2.6 13.9 0.00 0.06 0.06 43 1006.7
20260503214508 69 190 6.1 16.5 0.00 0.06 0.06 42 1006.7
20260503213002 68 218 5.2 17.4 0.00 0.06 0.06 42 1006.9
20260503211601 68 5 4.3 13.9 0.00 0.06 0.06 43 1007.1
20260503210056 67 198 4.3 14.8 0.00 0.06 0.06 43 1007.5
20260503204558 67 219 6.1 18.2 0.00 0.06 0.06 44 1007.7
20260503203052 66 176 5.2 20.0 0.00 0.06 0.06 45 1008.2
20260503201549 67 194 6.1 16.5 0.00 0.06 0.06 43 1008.5
20260503200046 66 205 5.2 18.2 0.00 0.06 0.06 41 1008.4
20260503194546 64 232 4.3 12.2 0.00 0.06 0.06 44 1008.8
20260503193052 64 230 8.7 21.7 0.00 0.06 0.06 43 1009.1
20260503191538 64 211 9.6 16.5 0.00 0.06 0.06 45 1009.3
20260503190044 63 193 7.8 14.8 0.00 0.06 0.06 52 1009.3
20260503184531 61 198 10.4 19.1 0.00 0.06 0.06 54 1009.5
20260503183026 59 185 7.8 17.4 0.00 0.06 0.06 60 1009.9
20260503181523 58 209 7.0 20.9 0.00 0.06 0.06 65 1010.3
20260503180033 56 188 4.3 10.4 0.00 0.06 0.06 75 1010.6
20260503174513 53 149 3.5 6.1 0.00 0.06 0.06 84 1011.2
20260503173010 49 194 0.9 5.2 0.00 0.06 0.06 87 1011.7
20260503171509 48 184 0.0 6.1 0.00 0.06 0.06 88 1012.1
20260503150106 50 211 0.9 6.1 0.03 0.03 0.03 72 1015.2
20260503081512 47 207 0.0 3.5 0.00 0.00 0.00 57 1015.7
20260503071506 48 184 0.9 5.2 0.00 0.00 0.00 52 1015.8
20260503070104 48 207 0.9 3.5 0.00 0.00 0.00 52 1015.8